Dewpoint
26 24 25 25 27 27 26 26 25 23 23 24 22 26 25 24 31 31 34 35 36 35 34 34 34 34 34 34 35 36 37 39 41 42 44 46 46 49
25 23 23 24 25 26 25 25 25 23 22 23 21 24 21 19 27 31 33 34 34 33 33 32 32 32 33 33 33 34 35 35 36 38 42 44 47 48
23 22 22 24 23 23 24 24 21 21 19 20 22 23 18 19 20 27 33 34 34 32 31 30 29 29 29 30 31 32 33 35 35 37 39 41 44 47
22 20 20 20 19 19 20 20 18 19 19 18 20 19 16 17 19 19 28 32 34 36 30 28 28 28 29 29 29 30 31 34 33 33 36 38 40 42
20 19 18 17 15 16 18 18 17 18 19 19 19 17 16 16 16 18 27 28 24 28 34 28 27 26 26 28 27 28 31 34 34 32 33 34 35 37
20 19 17 17 15 16 16 16 16 17 18 18 16 15 14 13 15 16 17 25 21 26 31 30 25 26 24 24 26 27 29 32 34 33 33 33 33 33
20 19 20 20 18 16 15 15 15 17 18 16 14 14 12 12 14 15 17 19 22 21 25 29 26 24 25 23 23 25 29 29 32 34 33 33 32 31
21 19 18 19 19 17 17 15 15 15 15 15 12 11 12 13 14 15 16 17 23 19 21 24 27 23 23 24 21 23 27 28 29 32 33 32 32 30
20 21 18 15 16 18 18 17 14 15 14 13 11 12 13 13 15 15 16 19 15 17 21 19 25 22 23 25 20 21 24 30 27 28 30 31 30 29
17 14 12 12 13 14 16 15 13 11 12 14 12 13 14 14 15 15 17 19 17 15 17 15 20 21 20 21 19 20 21 23 29 27 25 25 25 24
13 11 11 11 15 17 12 11 11 12 16 15 17 16 16 15 14 14 15 17 16 11 15 15 18 21 18 17 21 18 19 20 22 27 22 21 20 19
12 12 13 12 14 15 12 12 13 14 14 16 16 16 18 17 17 12 12 10 12 9 13 14 15 17 17 18 16 20 18 18 19 24 26 21 19 18
12 10 11 13 13 12 12 10 11 13 15 15 15 14 13 14 16 14 12 9 9 10 13 16 13 14 13 12 14 15 17 16 17 19 23 23 18 17
13 9 11 12 13 13 12 15 17 15 13 12 11 12 9 9 10 16 14 13 12 11 12 14 12 12 9 9 9 11 13 13 15 17 22 21 16 15
12 11 11 11 12 12 13 14 12 12 11 10 8 6 10 9 7 10 16 15 14 14 12 13 12 11 8 8 8 9 10 11 12 13 17 20 17 15
14 9 10 11 11 9 11 10 10 10 9 9 9 9 7 9 5 9 9 15 11 4 6 16 12 10 10 8 7 5 6 5 9 10 13 13 17 17
10 10 9 9 9 10 11 10 10 10 9 7 8 9 5 7 6 8 9 8 3 0 -3 3 13 11 10 9 5 5 4 4 6 7 7 6 7 10
13 10 12 14 14 13 9 5 5 4 8 9 9 10 11 8 8 8 9 7 6 3 -1 -0 -0 2 7 7 8 4 4 4 5 4 5 3 2 6
13 15 15 11 8 9 9 4 3 4 9 9 8 9 10 9 8 8 6 5 5 4 1 0 -1 -1 -3 -3 1 9 4 4 4 3 4 3 1 2
12 14 14 12 6 3 5 6 5 7 9 9 8 8 8 8 6 8 6 5 5 4 3 0 0 1 -0 -3 -1 2 4 6 6 4 3 5 3 5
10 12 14 11 5 6 9 10 9 9 9 8 8 8 7 8 5 6 5 4 4 3 2 2 1 3 3 6 2 1 3 5 4 6 6 1 4 4
8 10 12 8 5 9 10 9 7 5 7 8 8 7 6 7 5 5 5 4 5 4 4 2 3 3 3 3 3 3 5 4 6 6 4 4 6 5
10 6 8 5 7 11 11 9 9 7 10 8 8 6 4 6 6 5 5 5 4 4 2 2 1 2 2 1 2 4 3 4 6 3 3 3 2 0
Wind_Speed
10 11 10 9 11 6 6 5 3 1 3 5 9 10 8 13 12 10 13 16 17 19 20 21 23 22 22 24 25 24 24 23 23 23 22 19 16 16
11 13 13 11 11 9 8 9 4 1 3 5 8 9 13 11 14 10 11 12 15 18 20 20 21 22 23 24 24 24 24 23 23 23 23 20 15 11
13 14 13 13 11 12 12 10 10 7 5 4 8 10 14 14 15 12 8 6 7 11 16 18 19 21 23 23 25 25 25 24 24 24 22 22 20 18
12 14 11 9 12 13 12 13 12 10 7 8 4 10 12 12 12 15 8 6 4 8 11 15 19 20 23 24 24 26 25 25 25 25 25 23 24 24
12 12 10 12 12 12 11 12 12 10 10 4 5 8 7 13 7 9 11 9 10 9 7 13 16 19 20 23 24 26 28 27 25 26 27 27 26 26
13 13 14 14 12 10 11 11 10 10 10 9 8 7 8 7 6 10 13 8 9 8 9 12 15 17 20 21 23 25 27 29 27 25 26 27 27 29
15 14 11 11 11 11 10 10 11 9 8 8 10 7 9 8 9 7 7 9 3 10 8 10 9 10 11 17 19 24 28 27 29 24 25 28 29 30
15 14 13 11 6 8 9 12 12 11 9 7 8 8 8 8 9 9 8 7 2 10 6 11 7 10 10 13 22 23 26 26 27 27 23 26 28 32
14 13 10 7 8 7 7 11 10 9 11 10 10 4 4 6 8 8 7 6 5 9 3 7 9 10 10 13 23 22 23 25 24 25 26 27 29 31
16 15 13 7 6 6 12 10 3 4 6 4 2 3 4 4 7 5 8 11 5 9 10 6 6 10 10 13 24 23 23 24 25 24 25 24 25 27
14 14 11 8 6 8 10 8 4 4 3 1 2 8 9 14 17 8 11 5 5 8 14 4 8 3 8 16 14 22 23 25 27 24 24 23 23 22
11 11 11 8 9 10 10 7 7 4 7 4 4 7 6 7 12 15 10 12 5 5 6 5 12 6 3 7 16 14 16 25 25 25 22 24 22 15
13 12 8 9 10 10 9 6 2 3 3 7 7 7 9 9 3 6 8 10 11 9 4 3 12 11 5 4 8 14 13 17 17 18 17 23 25 21
14 13 11 10 9 8 4 5 6 5 9 9 8 6 7 9 10 2 4 2 1 6 5 8 6 10 10 5 8 11 7 16 15 14 13 16 20 22
14 13 11 9 6 5 7 7 11 12 11 8 6 6 3 4 9 8 5 3 2 3 4 3 8 11 14 12 7 10 8 10 15 14 13 12 12 10
13 11 9 6 6 6 1 5 7 8 7 4 4 3 8 5 10 10 5 4 6 10 14 13 9 9 10 11 12 13 14 9 12 14 11 12 12 9
12 7 6 6 7 7 7 5 4 2 5 4 9 6 8 9 9 12 11 9 8 9 13 13 7 8 7 5 7 8 11 11 12 12 13 14 13 13
8 8 10 10 10 12 11 9 7 7 6 8 8 9 7 8 7 9 9 11 10 8 12 11 12 8 5 2 5 6 5 6 6 9 7 8 14 14
9 11 12 9 9 11 13 11 9 4 7 9 7 7 9 8 9 8 8 8 8 8 8 7 9 7 7 8 4 4 4 2 4 6 4 4 8 12
8 8 13 12 9 11 12 11 10 7 7 9 6 5 8 5 8 7 7 8 8 7 7 8 8 10 5 4 4 2 8 1 5 10 5 1 3 8
11 8 13 12 9 11 12 12 12 10 6 8 7 4 5 5 5 5 6 8 7 7 8 8 9 13 10 6 9 7 7 14 13 11 2 5 7 3
13 12 13 13 12 13 13 12 10 8 8 5 9 6 2 4 3 4 3 5 6 7 6 7 10 10 9 9 9 11 9 11 11 12 14 15 11 12
14 13 13 13 13 14 13 13 11 11 9 8 8 8 4 1 1 3 3 4 6 7 6 7 8 7 9 9 10 9 12 10 9 9 7 12 17 18
Wind_Direction
80 64 62 33 20 32 50 51 98 330 303 1 10 1 62 49 46 63 64 44 40 39 39 30 23 20 19 18 19 14 15 16 13 5 357 353 337 326
82 70 47 29 26 35 32 8 31 83 257 3 347 38 41 38 22 64 78 62 49 42 37 33 26 25 23 24 22 20 17 16 15 13 6 7 0 330
77 69 49 42 37 25 25 24 30 29 354 330 331 58 40 26 15 15 91 79 56 60 58 42 33 29 26 24 24 25 25 25 24 21 15 18 19 21
89 73 55 47 40 27 18 26 28 25 9 336 328 64 40 7 16 16 13 60 54 53 67 61 47 36 30 29 28 29 28 25 33 30 28 32 34 38
97 86 71 56 41 28 33 23 19 8 5 0 57 58 41 18 356 6 18 36 13 18 24 62 57 45 36 32 31 32 32 28 36 39 37 36 43 44
101 91 79 70 53 40 43 25 13 16 17 36 42 43 27 0 5 6 358 39 12 6 22 72 57 49 41 34 31 32 35 33 30 43 42 41 44 50
104 92 97 82 68 65 68 45 34 35 27 47 44 46 27 5 0 325 318 321 51 23 357 32 53 31 32 31 31 34 35 36 33 39 48 46 45 49
106 96 77 71 70 73 80 66 56 56 55 72 60 54 19 351 331 330 321 348 322 22 346 30 68 41 17 40 34 36 34 37 37 35 46 48 49 46
88 100 89 69 70 53 86 80 57 77 84 98 93 65 5 349 329 328 337 346 57 342 335 31 7 54 20 35 39 32 35 31 41 42 40 43 48 45
96 102 96 77 80 92 98 101 88 79 94 100 127 272 269 350 342 315 317 140 123 28 19 42 353 79 43 32 41 31 30 28 30 49 47 45 45 43
113 105 96 79 99 103 114 121 111 41 332 237 326 66 37 39 30 39 42 74 67 22 18 26 351 59 66 50 30 28 28 31 29 39 54 50 48 44
107 102 105 98 98 101 118 129 95 26 1 70 61 52 26 29 45 47 46 63 71 43 341 53 0 356 47 44 35 11 16 21 23 28 58 57 51 44
131 117 107 107 100 107 118 127 163 313 40 88 72 44 30 17 35 79 57 66 74 64 321 94 17 25 49 5 35 13 23 16 14 18 19 57 49 52
149 139 125 114 113 118 124 102 67 75 91 84 63 35 28 16 1 168 151 113 103 78 23 42 47 58 44 49 27 355 8 22 17 12 11 57 48 47
145 148 146 146 128 112 111 93 74 80 86 77 58 26 354 343 6 26 183 210 266 321 355 24 77 69 71 62 51 19 11 9 10 10 17 50 54 38
139 141 152 174 206 181 115 103 100 94 92 66 11 343 27 22 30 12 23 199 113 64 39 56 87 76 86 71 71 52 31 37 5 11 11 31 37 40
144 140 168 184 192 205 192 171 180 168 128 73 43 54 51 37 45 35 28 30 69 88 62 49 50 69 67 111 65 60 42 32 10 12 21 20 16 6
161 185 201 205 203 195 175 148 111 95 83 99 65 45 33 38 61 49 38 37 27 55 87 64 45 44 34 38 105 83 51 19 359 0 7 20 8 3
200 214 207 179 160 160 164 149 140 124 113 104 86 56 31 51 56 68 48 38 18 16 71 84 58 43 21 11 322 86 100 3 335 347 337 30 7 348
209 227 183 179 174 158 151 154 151 142 122 122 110 72 31 78 67 58 44 20 8 20 30 38 26 3 338 299 300 292 353 273 344 339 328 276 289 303
211 226 176 180 179 158 143 145 144 140 129 144 135 111 51 63 78 53 46 24 22 29 15 24 4 355 343 346 11 353 330 13 357 348 16 340 334 313
216 202 180 174 161 156 150 147 152 165 177 167 155 147 109 26 87 51 49 26 26 21 17 23 4 2 4 3 356 348 358 344 348 7 14 3 10 348
202 183 176 172 170 168 167 174 180 189 204 166 159 154 153 166 345 62 35 74 40 65 37 23 11 1 358 347 345 347 341 345 351 0 345 1 349 340